Location: Unspecified
(0.0000°N, 0.0000°E)
Time: 08:48:16
(UTC+02:00)

Cosmos 1072 Rocket - Visible Passes

Search period start: 28 April 2015 00:00
Search period end: 08 May 2015 00:00
Orbit: 948 x 1010 km, 82.9° (Epoch: 27 April)

Date Brightness Start Highest point End Pass type
(mag) Time Alt. Az. Time Alt. Az. Time Alt. Az.
28 Apr 7.1 07:06:17 10° SE 07:10:43 22° E 07:15:22 10° NE visible
28 Apr 5.0 20:10:03 10° N 20:16:19 71° W 20:22:41 10° S visible
29 Apr 5.6 07:31:14 10° SSE 07:37:10 49° E 07:43:03 10° NNE visible
29 Apr 6.5 20:37:09 10° NNW 20:42:43 32° W 20:48:13 10° SSW visible
30 Apr 7.5 21:06:00 10° WNW 21:09:15 14° W 21:12:00 10° WSW visible
01 May 7.2 06:40:32 10° SE 06:44:29 19° E 06:48:43 10° NE visible
02 May 5.8 07:05:12 10° SSE 07:10:57 42° E 07:16:42 10° NNE visible
02 May 6.4 20:10:45 10° NNW 20:16:31 36° W 20:22:16 10° SSW visible
03 May 4.5 07:31:06 10° S 07:37:18 85° W 07:43:25 10° N visible
03 May 7.4 20:39:07 10° WNW 20:43:02 16° W 20:46:32 10° SW visible
04 May 7.2 06:14:53 10° SE 06:18:15 16° E 06:22:00 10° ENE visible
05 May 6.0 06:39:10 10° SSE 06:44:44 37° E 06:50:19 10° NNE visible
06 May 4.5 07:04:56 10° S 07:11:06 84° E 07:17:12 10° N visible
07 May 7.2 05:49:23 10° ESE 05:52:00 13° E 05:55:06 10° ENE visible
07 May 4.8 07:31:38 10° SSW 07:37:26 43° W 07:43:07 10° NNW visible
